Terminal Aerodrome Forecast
Issued by NWS Cleveland, OH

Home | Current Version | Previous Version | Text Only | Print | Product List | Glossary On
Versions: 1 2 3 4 5 6 7 8 9 10 11 12 13 14 15 16 17 18 19
000
FTUS41 KCLE 251100
TAFYNG
TAF
KYNG 251135Z 2512/2612 20006KT P6SM BKN040
     FM251300 22012KT P6SM SCT040 BKN120
     FM251700 23012G20KT P6SM SCT022 OVC040
      TEMPO 2518/2520 BKN022
     FM252300 27010KT P6SM SCT030=

USA.gov is the U.S. government's official web portal to all federal, state and local government web resources and services.